sat.trackr.live / text

‹ back to catalog

STARLINK-35674

NORAD 67117 · 2025-299R

PAYLOAD ACTIVE UNKNOWN

§ Identity

Operator
Country
US
Launch date
2025-12-15
Launch site
AFETR
Launch vehicle
Mass (kg)
RCS (m²)

Purposes: comms

External: N2YO · Heavens-Above · Gunter

§ Orbital elements

Epoch: 2026-09-20T01:32:52.278144Z

Period
94.27 min
Inclination
43.0017°
Eccentricity
0.0001215
Mean motion
15.27589677 rev/d
Perigee alt
482.2 km
Apogee alt
483.9 km
Semi-major
6,861.2 km
B*
3.5442e-4
RAAN
151.2414°
Arg perigee
265.0751°
Mean anomaly
94.9962°
Rev number
4,284

§ Raw data

STARLINK-356741 67117U 25299R   26263.06449396  .00009506  00000+0  35442-3 0  99992 67117  43.0017 151.2414 0001215 265.0751  94.9962 15.27589677 42846

JSON: /api/v1/satellites/67117 · /tle

For live sub-satellite position, see the globe view (requires WebGL).

§ Visibility from observer

Set your observer location to see the next 7 days of passes ≥ 10°. The values pass through the URL so the page stays shareable.

No JS? Fill the form by hand. The geolocation button needs JavaScript.